Torna al catalogo

DMSP 5D-2 F11 DEB

LostSSO
NORAD 28331·DEBRIS·🇺🇸 United States

Lanciato Nov 28, 1991 da Vandenberg Space Force Base

Loading…

Prossimi Passaggi (prossime 24 ore)

TLE

ObsoletoSource: Space-Track

Epoca: Feb 8, 2024, 06:28 UTC

1 28331U 91082AU  24039.26970678  .00023154  00000-0  50121-2 0  9996
2 28331  98.2815  44.9114 0033796 155.4796 204.8019 14.57843026 37936

Traccia DMSP 5D-2 F11 DEB in tempo reale con AllMySat

Download on the App Store